Location: Argonnex
(45.9500°N, 6.1333°E)
Time: 06:15:46
(UTC+00:00)

Cosmos 2266 Rocket - Pass Details

Date: 04 August 2024
Orbit: 933 x 1008 km, 82.9° (Epoch: 08 September)

Event Time Altitude Azimuth Distance (km) Brightness Sun altitude
Rises 01:01:21 0° 358° (N) 3,608 8.1 -24.4°
Reaches altitude 10° 01:04:09 10° 9° (N) 2,655 7.3 -24.2°
Maximum altitude 01:09:30 32° 71° (ENE) 1,550 5.4 -23.8°
Drops below altitude 10° 01:14:49 10° 133° (SE) 2,642 6.1 -23.5°
Enters shadow 01:15:04 - 135° (SE) 2,723 6.1 -23.5°
